Location: Ethel Rock
(53.4667°N, 4.5667°W)
Time: 01:24:39
(UTC+00:00)

NOSS 3-2 (C) - Pass Details

Date: 24 October 2020
Orbit: 788 x 1424 km, 63.4° (Epoch: 23 November)

Event Time Altitude Azimuth Distance (km) Brightness Sun altitude
Exits shadow 04:47:20 16° 203° (SSW) 2,126 5.0 -20.7°
Maximum altitude 04:51:57 59° 128° (SE) 1,078 3.9 -20.0°
Drops below altitude 10° 04:58:30 10° 51° (NE) 2,880 6.8 -19.0°
Sets 05:01:23 0° 48° (NE) 3,940 7.5 -18.6°
